GW0986 Weather Reports


time (UTC)temp
F
wind
direction
speed
knots
gust
knots
rain 1hr
in
rain 24hr
in
rain mn
in
humidity
%
barometer
mb
20260508013058 68 302 1.7 7.8 0.00 0.00 0.00 70 1014.3
20260508011559 69 0 1.7 6.1 0.00 0.00 0.00 68 1014.3
20260508010054 71 192 0.9 3.5 0.00 0.00 0.00 65 1014.2
20260508004558 72 236 0.9 5.2 0.00 0.00 0.00 63 1014.1
20260508003103 72 184 1.7 6.1 0.00 0.00 0.00 63 1014.1
20260508001550 73 225 0.9 6.1 0.00 0.00 0.00 61 1014.0
20260508000052 73 0 0.9 7.0 0.00 0.00 0.00 62 1014.1
20260507234550 75 248 0.9 7.8 0.00 0.00 0.00 59 1014.2
20260507233056 75 0 1.7 9.6 0.00 0.00 0.00 59 1014.1
20260507231557 75 180 0.9 7.8 0.00 0.00 0.00 59 1014.1
20260507230053 75 165 1.7 6.1 0.00 0.00 0.00 58 1014.0
20260507224601 75 19 1.7 6.1 0.00 0.00 0.00 58 1014.1
20260507223052 75 193 1.7 6.1 0.00 0.00 0.00 58 1014.2
20260507221553 75 205 1.7 7.8 0.00 0.00 0.00 59 1014.3
20260507220057 76 273 1.7 7.8 0.00 0.00 0.00 59 1014.5
20260507214553 75 105 0.9 7.8 0.00 0.00 0.00 61 1014.6
20260507213056 76 215 1.7 8.7 0.00 0.00 0.00 58 1014.8
20260507211554 76 308 0.9 9.6 0.00 0.00 0.00 59 1014.9
20260507210116 76 178 0.9 7.8 0.00 0.00 0.00 58 1014.9
20260507204557 76 156 1.7 7.0 0.00 0.00 0.00 58 1015.1
20260507203056 76 252 2.6 7.8 0.00 0.00 0.00 59 1015.1
20260507201548 76 119 1.7 8.7 0.00 0.00 0.00 60 1015.1
20260507200106 76 287 1.7 7.0 0.00 0.00 0.00 58 1015.3
20260507194557 75 0 0.9 9.6 0.00 0.00 0.00 59 1015.4
20260507193552 76 315 1.7 6.1 0.00 0.00 0.00 59 1015.5
20260507144606 62 152 0.0 2.6 0.00 0.00 0.00 79 1016.8
20260507143106 62 217 0.0 3.5 0.00 0.00 0.00 82 1016.8
20260507141610 59 0 0.0 0.9 0.00 0.00 0.00 85 1016.5
20260507140110 56 0 0.0 0.9 0.00 0.00 0.00 90 1016.4
20260507134611 55 0 0.0 0.0 0.00 0.00 0.00 93 1016.2
20260507133134 53 0 0.0 0.0 0.00 0.00 0.00 93 1016.1
20260507131603 52 0 0.0 0.0 0.00 0.00 0.00 93 1015.9
20260507130057 52 0 0.0 0.0 0.00 0.00 0.00 92 1015.8
20260507124605 52 0 0.0 0.0 0.00 0.00 0.00 91 1015.8
20260507123055 52 0 0.0 0.0 0.00 0.00 0.00 90 1015.7
20260507121600 53 0 0.0 0.9 0.00 0.00 0.00 91 1015.8
20260507120053 53 0 0.0 0.0 0.00 0.00 0.00 90 1015.9
20260507114559 53 0 0.0 0.0 0.00 0.00 0.00 90 1015.9
20260507113055 53 0 0.0 0.0 0.00 0.00 0.00 89 1015.9
20260507111559 54 0 0.0 0.0 0.00 0.00 0.00 88 1015.9
20260507110055 54 0 0.0 0.0 0.00 0.00 0.00 89 1016.1
20260507104554 55 0 0.0 0.0 0.00 0.00 0.00 88 1016.1
20260507103053 55 0 0.0 0.9 0.00 0.00 0.00 89 1016.1
20260507101602 55 0 0.0 0.9 0.00 0.00 0.00 89 1016.2
20260507100051 55 0 0.0 1.7 0.00 0.00 0.00 89 1016.2
20260507094550 55 0 0.0 0.9 0.00 0.00 0.00 88 1016.4
20260507093057 55 0 0.0 0.9 0.00 0.00 0.00 88 1016.5
20260507091559 55 0 0.0 0.0 0.00 0.00 0.00 88 1016.7
20260507090110 55 0 0.0 0.0 0.00 0.00 0.00 87 1016.9
20260507084552 55 0 0.0 0.0 0.00 0.00 0.00 87 1017.0
20260507083052 55 0 0.0 0.0 0.00 0.00 0.00 86 1017.2
20260507081553 56 0 0.0 0.0 0.00 0.00 0.00 86 1017.2
20260507080055 56 0 0.0 0.0 0.00 0.00 0.00 86 1017.2
20260507074558 56 0 0.0 0.0 0.00 0.00 0.00 85 1017.2
20260507073053 57 0 0.0 0.0 0.00 0.00 0.00 85 1017.3
20260507071553 57 0 0.0 0.0 0.00 0.00 0.00 84 1017.3
20260507070054 57 0 0.0 0.0 0.00 0.00 0.00 84 1017.4
20260507064606 57 0 0.0 0.0 0.00 0.00 0.00 83 1017.5
20260507063056 58 0 0.0 0.0 0.00 0.00 0.00 83 1017.5
20260507061553 58 0 0.0 0.0 0.00 0.00 0.00 82 1017.5
20260507060054 58 0 0.0 0.0 0.00 0.00 0.00 82 1017.6
20260507054557 58 0 0.0 0.0 0.00 0.00 0.00 81 1017.5
20260507053051 59 0 0.0 0.0 0.00 0.00 0.00 80 1017.6
20260507051551 59 0 0.0 0.0 0.00 0.00 0.00 79 1017.5
20260507050052 59 0 0.0 0.0 0.00 0.00 0.00 78 1017.3
20260507044555 60 0 0.0 0.0 0.00 0.00 0.00 78 1017.4
20260507043100 61 0 0.0 0.0 0.00 0.00 0.00 77 1017.4
20260507041603 61 0 0.0 0.0 0.00 0.00 0.00 75 1017.2
20260507040059 62 0 0.0 0.9 0.00 0.00 0.00 74 1017.2
20260507034557 63 0 0.0 1.7 0.00 0.00 0.00 73 1017.1
20260507033053 63 0 0.0 3.5 0.00 0.00 0.00 72 1017.0
20260507031552 64 0 0.0 1.7 0.00 0.00 0.00 71 1016.8
20260507030058 64 0 0.0 1.7 0.00 0.00 0.00 70 1016.7
20260507024553 65 0 0.0 1.7 0.00 0.00 0.00 69 1016.6
20260507023108 65 0 0.9 3.5 0.00 0.00 0.00 67 1016.4
20260507021553 66 221 0.0 3.5 0.00 0.00 0.00 65 1016.3
20260507020051 67 300 0.0 4.3 0.00 0.00 0.00 63 1016.1
20260507014604 67 180 0.0 6.1 0.00 0.00 0.00 64 1016.1